Sand Point, AK

11:39 AM AKDT on April 27, 2017 (GMT -0800)
Sand Point

Weather History for PASD - January, 2013

Change the Weather History Date:

Tuesday, January 22, 2013

  Actual Average Record
Temperature  
Mean Temperature 36 °F -  
Max Temperature 39 °F 33 °F 48 °F (1999)
Min Temperature 33 °F 28 °F 8 °F (2012)
Degree Days  
Heating Degree Days 29    
Moisture  
Dew Point 35 °F    
Average Humidity 95    
Maximum Humidity 100    
Minimum Humidity 87    
Precipitation  
Precipitation 0.00 in - - ()
Sea Level Pressure  
Sea Level Pressure 29.34 in    
Wind  
Wind Speed 5 mph (NW)    
Max Wind Speed 12 mph    
Max Gust Speed -    
Visibility 10 miles    
Events      
Averages and records for this station are not official NWS values.
T = Trace of Precipitation, MM = Missing Value Source: NWS Daily Summary

Daily Weather History Graph

Daily Weather History Graph

Search for Another Location

Airport or City:

Trip Planner

Search our weather history database for the weather conditions in past years. The results will help you decide how hot, cold, wet, or windy it might be!

Date:

Astronomy

Jan. 22, 2013 Rise Set
Actual Time 9:49 AM AKST 5:58 PM AKST
Civil Twilight 9:07 AM AKST 6:40 PM AKST
Nautical Twilight 8:22 AM AKST 7:25 PM AKST
Astronomical Twilight 7:39 AM AKST 8:09 PM AKST
Moon 2:21 PM AKST (1/22) 6:29 AM AKST (1/22)
Length of Visible Light 9h 32m
Length of Day
8h 08m
Waxing Gibbous, 84% of the Moon is Illuminated
Jan 22
Waxing Gibbous
Jan 26
Full
Feb 3
Last Quarter
Feb 9
New
Feb 17
First Quarter

Hourly Weather History & Observations

Time (AKST) Temp. Windchill Dew Point Humidity Pressure Visibility Wind Dir Wind Speed Gust Speed Precip Events Conditions
12:16 AM 37.4 °F - 37.4 °F 100% 29.32 in 5.0 mi Calm Calm - N/A   Overcast
12:36 AM 37.4 °F - 37.4 °F 100% 29.34 in 10.0 mi Calm Calm - N/A   Overcast
12:56 AM 35.6 °F - 35.6 °F 100% 29.33 in 10.0 mi Calm Calm - N/A   Overcast
1:16 AM 35.6 °F 32.8 °F 35.6 °F 100% 29.34 in 10.0 mi NNW 3.5 mph - N/A   Overcast
1:36 AM 35.6 °F 32.8 °F 35.6 °F 100% 29.34 in 10.0 mi NW 3.5 mph - N/A   Overcast
1:56 AM 35.6 °F 32.8 °F 35.6 °F 100% 29.36 in 10.0 mi NNW 3.5 mph - N/A   Overcast
2:16 AM 35.6 °F 31.7 °F 35.6 °F 100% 29.35 in 10.0 mi NW 4.6 mph - N/A   Overcast
2:36 AM 35.6 °F 31.7 °F 35.6 °F 100% 29.35 in 8.0 mi West 4.6 mph - N/A   Overcast
2:56 AM 35.6 °F 29.9 °F 35.6 °F 100% 29.36 in 8.0 mi WNW 6.9 mph - N/A   Overcast
3:16 AM 35.6 °F 30.7 °F 35.6 °F 100% 29.37 in 3.0 mi WNW 5.8 mph - N/A   Overcast
3:36 AM 35.6 °F 30.7 °F 35.6 °F 100% 29.36 in 3.0 mi WNW 5.8 mph - N/A   Overcast
3:56 AM 35.6 °F 31.7 °F 35.6 °F 100% 29.36 in 5.0 mi WNW 4.6 mph - N/A   Overcast
4:16 AM 35.6 °F 31.7 °F 35.6 °F 100% 29.36 in 10.0 mi WNW 4.6 mph - N/A   Overcast
4:36 AM 35.6 °F - 35.6 °F 100% 29.38 in 10.0 mi Calm Calm - N/A   Overcast
4:56 AM 35.6 °F 31.7 °F 35.6 °F 100% 29.37 in 10.0 mi WNW 4.6 mph - N/A   Overcast
5:16 AM 35.6 °F 31.7 °F 33.8 °F 93% 29.37 in 10.0 mi NW 4.6 mph - N/A   Overcast
5:36 AM 35.6 °F 29.9 °F 33.8 °F 93% 29.38 in 10.0 mi West 6.9 mph - N/A   Overcast
5:56 AM 35.6 °F 30.7 °F 35.6 °F 100% 29.38 in 10.0 mi NW 5.8 mph - N/A   Overcast
6:16 AM 35.6 °F 28.6 °F 35.6 °F 100% 29.37 in 10.0 mi West 9.2 mph - N/A   Mostly Cloudy
6:36 AM 35.6 °F 29.9 °F 35.6 °F 100% 29.38 in 10.0 mi WNW 6.9 mph - N/A   Overcast
6:56 AM 35.6 °F 29.2 °F 35.6 °F 100% 29.39 in 10.0 mi West 8.1 mph - N/A   Mostly Cloudy
7:16 AM 35.6 °F 32.8 °F 35.6 °F 100% 29.39 in 10.0 mi WNW 3.5 mph - N/A   Mostly Cloudy
7:36 AM 35.6 °F 32.8 °F 35.6 °F 100% 29.37 in 10.0 mi NNW 3.5 mph - N/A   Mostly Cloudy
7:56 AM 35.6 °F 30.7 °F 35.6 °F 100% 29.37 in 10.0 mi NW 5.8 mph - N/A   Mostly Cloudy
8:16 AM 37.4 °F 31.4 °F 35.6 °F 93% 29.39 in 10.0 mi NW 8.1 mph - N/A   Mostly Cloudy
8:36 AM 35.6 °F 30.7 °F 35.6 °F 100% 29.39 in 10.0 mi WNW 5.8 mph - N/A   Mostly Cloudy
8:56 AM 35.6 °F 30.7 °F 35.6 °F 100% 29.38 in 10.0 mi NNW 5.8 mph - N/A   Mostly Cloudy
9:16 AM 35.6 °F 32.8 °F 35.6 °F 100% 29.39 in 10.0 mi NNW 3.5 mph - N/A   Mostly Cloudy
9:36 AM 35.6 °F 28.0 °F 35.6 °F 100% 29.40 in 10.0 mi NW 10.4 mph - N/A   Mostly Cloudy
9:56 AM 35.6 °F 28.6 °F 33.8 °F 93% 29.39 in 10.0 mi NW 9.2 mph - N/A   Mostly Cloudy
10:16 AM 35.6 °F 28.0 °F 33.8 °F 93% 29.39 in 10.0 mi NNW 10.4 mph - N/A   Mostly Cloudy
10:36 AM 35.6 °F 28.0 °F 33.8 °F 93% 29.39 in 10.0 mi NNW 10.4 mph - N/A   Mostly Cloudy
10:56 AM 35.6 °F 28.0 °F 35.6 °F 100% 29.40 in 10.0 mi NW 10.4 mph - N/A   Mostly Cloudy
11:16 AM 35.6 °F 27.5 °F 33.8 °F 93% 29.38 in 10.0 mi NW 11.5 mph - N/A   Mostly Cloudy
11:36 AM 35.6 °F 28.6 °F 35.6 °F 100% 29.39 in 10.0 mi WNW 9.2 mph - N/A   Mostly Cloudy
11:56 AM 37.4 °F 30.8 °F 35.6 °F 93% 29.39 in 10.0 mi WNW 9.2 mph - N/A   Mostly Cloudy
12:16 PM 37.4 °F 31.4 °F 35.6 °F 93% 29.39 in 10.0 mi NW 8.1 mph - N/A   Mostly Cloudy
12:36 PM 37.4 °F 30.8 °F 35.6 °F 93% 29.38 in 10.0 mi NW 9.2 mph - N/A   Partly Cloudy
12:56 PM 37.4 °F 32.1 °F 35.6 °F 93% 29.37 in 10.0 mi NW 6.9 mph - N/A   Scattered Clouds
1:16 PM 39.2 °F 33.0 °F 35.6 °F 87% 29.37 in 10.0 mi NW 9.2 mph - N/A   Scattered Clouds
1:36 PM 39.2 °F 33.0 °F 35.6 °F 87% 29.36 in 10.0 mi NW 9.2 mph - N/A   Scattered Clouds
1:56 PM 39.2 °F 33.0 °F 35.6 °F 87% 29.35 in 10.0 mi NW 9.2 mph - N/A   Scattered Clouds
2:16 PM 39.2 °F 32.5 °F 35.6 °F 87% 29.35 in 10.0 mi NW 10.4 mph - N/A   Scattered Clouds
2:36 PM 39.2 °F 32.5 °F 35.6 °F 87% 29.34 in 10.0 mi NW 10.4 mph - N/A   Scattered Clouds
2:56 PM 39.2 °F 33.0 °F 35.6 °F 87% 29.34 in 10.0 mi NW 9.2 mph - N/A   Mostly Cloudy
3:16 PM 39.2 °F 33.6 °F 35.6 °F 87% 29.33 in 10.0 mi NW 8.1 mph - N/A   Mostly Cloudy
3:36 PM 39.2 °F 34.2 °F 35.6 °F 87% 29.33 in 10.0 mi NW 6.9 mph - N/A   Mostly Cloudy
3:56 PM 39.2 °F 34.2 °F 35.6 °F 87% 29.33 in 10.0 mi NW 6.9 mph - N/A   Mostly Cloudy
4:16 PM 37.4 °F 32.1 °F 35.6 °F 93% 29.32 in 10.0 mi NW 6.9 mph - N/A   Mostly Cloudy
4:36 PM 39.2 °F 34.2 °F 35.6 °F 87% 29.32 in 10.0 mi NW 6.9 mph - N/A   Mostly Cloudy
4:56 PM 37.4 °F 31.4 °F 35.6 °F 93% 29.32 in 10.0 mi NW 8.1 mph - N/A   Mostly Cloudy
5:16 PM 37.4 °F 32.1 °F 33.8 °F 87% 29.32 in 10.0 mi NW 6.9 mph - N/A   Mostly Cloudy
5:36 PM 37.4 °F 32.8 °F 33.8 °F 87% 29.32 in 10.0 mi NW 5.8 mph - N/A   Mostly Cloudy
5:56 PM 37.4 °F 33.8 °F 33.8 °F 87% 29.32 in 10.0 mi NW 4.6 mph - N/A   Mostly Cloudy
6:16 PM 37.4 °F 33.8 °F 33.8 °F 87% 29.31 in 10.0 mi NW 4.6 mph - N/A   Mostly Cloudy
6:36 PM 37.4 °F 34.9 °F 35.6 °F 93% 29.31 in 10.0 mi NW 3.5 mph - N/A   Mostly Cloudy
6:56 PM 35.6 °F 32.8 °F 33.8 °F 93% 29.31 in 10.0 mi NW 3.5 mph - N/A   Mostly Cloudy
7:16 PM 35.6 °F 29.9 °F 33.8 °F 93% 29.31 in 10.0 mi NW 6.9 mph - N/A   Mostly Cloudy
7:36 PM 35.6 °F 32.8 °F 33.8 °F 93% 29.30 in 10.0 mi NW 3.5 mph - N/A   Mostly Cloudy
7:56 PM 35.6 °F 31.7 °F 33.8 °F 93% 29.30 in 10.0 mi WNW 4.6 mph - N/A   Mostly Cloudy
8:16 PM 35.6 °F 31.7 °F 33.8 °F 93% 29.30 in 10.0 mi NNW 4.6 mph - N/A   Overcast
8:36 PM 35.6 °F 31.7 °F 33.8 °F 93% 29.30 in 10.0 mi NNW 4.6 mph - N/A   Overcast
8:56 PM 35.6 °F 30.7 °F 33.8 °F 93% 29.29 in 10.0 mi NW 5.8 mph - N/A   Overcast
9:16 PM 35.6 °F 30.7 °F 33.8 °F 93% 29.29 in 10.0 mi NNW 5.8 mph - N/A   Overcast
9:36 PM 35.6 °F 31.7 °F 33.8 °F 93% 29.29 in 10.0 mi North 4.6 mph - N/A   Overcast
9:56 PM 35.6 °F 31.7 °F 33.8 °F 93% 29.29 in 10.0 mi NW 4.6 mph - N/A   Overcast
10:16 PM 35.6 °F 32.8 °F 33.8 °F 93% 29.28 in 10.0 mi WNW 3.5 mph - N/A   Overcast
10:36 PM 35.6 °F 32.8 °F 33.8 °F 93% 29.28 in 10.0 mi WNW 3.5 mph - N/A   Overcast
10:56 PM 35.6 °F 31.7 °F 33.8 °F 93% 29.28 in 10.0 mi NNW 4.6 mph - N/A   Overcast
11:16 PM 35.6 °F - 33.8 °F 93% 29.28 in 10.0 mi Calm Calm - N/A   Overcast
11:36 PM 33.8 °F - 33.8 °F 100% 29.27 in 10.0 mi Calm Calm - N/A   Overcast
11:56 PM 33.8 °F - 32.0 °F 93% 29.27 in 10.0 mi Calm Calm - N/A   Overcast